Location: Bishop�s Knoyle
(51.0728°N, 2.1714°W)
Time: 19:46:20
(UTC+00:00)

N. Korean satellite - Pass Details

Date: 30 September 2021
Orbit: 450 x 495 km, 97.3° (Epoch: 23 October)

Event Time Altitude Azimuth Distance (km) Brightness Sun altitude
Rises 04:18:06 0° 31° (NNE) 2,545 11.0 -17.8°
Reaches altitude 10° 04:21:14 10° 62° (ENE) 1,670 10.5 -17.3°
Maximum altitude 04:22:50 13° 89° (E) 1,521 10.2 -17.1°
Drops below altitude 10° 04:24:26 10° 115° (ESE) 1,674 10.0 -16.9°
Sets 04:27:35 0° 146° (SE) 2,557 10.5 -16.4°
